Weather History for Cook, MN

Change the Weather History Date:

Friday, September 6, 2013

  Actual Average Record
Temperature  
Mean Temperature 72 °F -  
Max Temperature 82 °F 69 °F 82 °F (2001)
Min Temperature 62 °F 48 °F 35 °F (2010)
Cooling Degree Days 7    
Growing Degree Days 22 (Base 50)    
Moisture  
Dew Point 63 °F    
Average Humidity 76    
Maximum Humidity 100    
Minimum Humidity 54    
Precipitation  
Precipitation 0.00 in - - ()
Sea Level Pressure  
Sea Level Pressure 29.96 in    
Wind  
Wind Speed 4 mph (SW)    
Max Wind Speed 10 mph    
Max Gust Speed -    
Visibility 10 miles    
Events      
Averages and records for this station are not official NWS values.
T = Trace of Precipitation, MM = Missing Value Source: NWS Daily Summary

Daily Weather History Graph

Daily Weather History Graph

Search for Another Location

Airport:

Trip Planner

Search our weather history database for the weather conditions in past years. The results will help you decide how hot, cold, wet, or windy it might be!

Date:

Astronomy

Sep. 06, 2013 Rise Set
Actual Time 6:36 AM CDT 7:40 PM CDT
Civil Twilight 6:04 AM CDT 8:12 PM CDT
Nautical Twilight 5:26 AM CDT 8:50 PM CDT
Astronomical Twilight 4:45 AM CDT 9:30 PM CDT
Moon 7:58 AM CDT (9/6) 7:54 PM CDT (9/6)
Length of Visible Light 14h 07m
Length of Day
13h 04m
New Moon, 2% of the Moon is Illuminated
Sep 6
New Moon
Sep 12
First Quarter
Sep 19
Full
Sep 26
Last Quarter
Oct 4
New

Hourly Weather History & Observations

Time (CDT) Temp. Heat Index Dew Point Humidity Pressure Visibility Wind Dir Wind Speed Gust Speed Precip Events Conditions
12:17 AM 62.6 °F - 51.8 °F 68% 30.09 in 10.0 mi Calm Calm - N/A   Clear
12:36 AM 62.6 °F - 51.8 °F 68% 30.08 in 10.0 mi Calm Calm - N/A   Clear
12:57 AM 62.6 °F - 51.8 °F 68% 30.08 in 10.0 mi South 5.8 mph - N/A   Clear
1:16 AM 62.6 °F - 51.8 °F 68% 30.08 in 10.0 mi South 4.6 mph - N/A   Clear
1:36 AM 62.6 °F - 53.6 °F 72% 30.07 in 10.0 mi South 5.8 mph - N/A   Clear
1:57 AM 62.6 °F - 53.6 °F 72% 30.07 in 10.0 mi South 4.6 mph - N/A   Clear
2:16 AM 62.6 °F - 53.6 °F 72% 30.06 in 10.0 mi South 4.6 mph - N/A   Clear
2:36 AM 64.4 °F - 53.6 °F 68% 30.06 in 10.0 mi South 6.9 mph - N/A   Clear
2:57 AM 64.4 °F - 55.4 °F 73% 30.06 in 10.0 mi SSW 4.6 mph - N/A   Clear
3:17 AM 64.4 °F - 55.4 °F 73% 30.06 in 10.0 mi Calm Calm - N/A   Clear
3:36 AM 62.6 °F - 55.4 °F 77% 30.06 in 10.0 mi Calm Calm - N/A   Clear
3:57 AM 62.6 °F - 57.2 °F 82% 30.04 in 10.0 mi Calm Calm - N/A   Clear
4:17 AM 64.4 °F - 59.0 °F 83% 30.04 in 10.0 mi SSW 4.6 mph - N/A   Clear
4:36 AM 64.4 °F - 60.8 °F 88% 30.03 in 10.0 mi South 5.8 mph - N/A   Clear
4:57 AM 64.4 °F - 60.8 °F 88% 30.03 in 10.0 mi SSW 4.6 mph - N/A   Clear
5:17 AM 64.4 °F - 60.8 °F 88% 30.04 in 10.0 mi SW 5.8 mph - N/A   Clear
5:36 AM 64.4 °F - 60.8 °F 88% 30.03 in 10.0 mi SSW 4.6 mph - N/A   Clear
5:57 AM 62.6 °F - 60.8 °F 94% 30.02 in 10.0 mi South 3.5 mph - N/A   Clear
6:17 AM 62.6 °F - 60.8 °F 94% 30.01 in 10.0 mi South 3.5 mph - N/A   Clear
6:36 AM 62.6 °F - 60.8 °F 94% 30.01 in 10.0 mi South 3.5 mph - N/A   Clear
6:57 AM 62.6 °F - 60.8 °F 94% 30.01 in 10.0 mi South 3.5 mph - N/A   Clear
7:17 AM 62.6 °F - 60.8 °F 94% 30.01 in 10.0 mi South 4.6 mph - N/A   Clear
7:36 AM 64.4 °F - 60.8 °F 88% 30.01 in 10.0 mi South 4.6 mph - N/A   Clear
7:57 AM 64.4 °F - 60.8 °F 88% 29.99 in 10.0 mi South 5.8 mph - N/A   Clear
8:17 AM 66.2 °F - 62.6 °F 88% 29.99 in 10.0 mi South 8.1 mph - N/A   Clear
8:36 AM 68.0 °F - 62.6 °F 83% 29.98 in 10.0 mi SSW 6.9 mph - N/A   Clear
8:53 AM 68.0 °F - 62.6 °F 83% 29.99 in 10.0 mi SSW 6.9 mph - N/A   Scattered Clouds
9:16 AM 69.8 °F - 62.6 °F 78% 29.98 in 10.0 mi SSW 6.9 mph - N/A   Scattered Clouds
9:37 AM 71.6 °F - 62.6 °F 73% 29.98 in 10.0 mi SSW 8.1 mph - N/A   Scattered Clouds
9:56 AM 71.6 °F - 62.6 °F 73% 29.98 in 10.0 mi SSW 4.6 mph - N/A   Clear
10:16 AM 73.4 °F - 62.6 °F 69% 29.98 in 10.0 mi SW 5.8 mph - N/A   Scattered Clouds
10:37 AM 73.4 °F - 62.6 °F 69% 29.98 in 10.0 mi SW 5.8 mph - N/A   Scattered Clouds
10:56 AM 73.4 °F - 62.6 °F 69% 29.97 in 10.0 mi South 5.8 mph - N/A   Scattered Clouds
11:16 AM 73.4 °F - 64.4 °F 73% 29.97 in 10.0 mi South 4.6 mph - N/A   Scattered Clouds
11:37 AM 75.2 °F - 64.4 °F 69% 29.95 in 10.0 mi SSE 6.9 mph - N/A   Clear
11:56 AM 77.0 °F - 64.4 °F 65% 29.95 in 10.0 mi South 5.8 mph - N/A   Clear
12:16 PM 78.8 °F - 64.4 °F 61% 29.94 in 10.0 mi WSW 6.9 mph - N/A   Clear
12:37 PM 80.6 °F 82.3 °F 64.4 °F 58% 29.93 in 10.0 mi WSW 8.1 mph - N/A   Clear
12:56 PM 80.6 °F 82.3 °F 64.4 °F 58% 29.93 in 10.0 mi WSW 8.1 mph - N/A   Clear
1:16 PM 80.6 °F 82.3 °F 64.4 °F 58% 29.92 in 10.0 mi SSW 6.9 mph - N/A   Clear
1:37 PM 82.4 °F 84.6 °F 66.2 °F 58% 29.92 in 10.0 mi West 8.1 mph - N/A   Scattered Clouds
1:56 PM 82.4 °F 84.6 °F 66.2 °F 58% 29.91 in 10.0 mi WSW 5.8 mph - N/A   Scattered Clouds
2:16 PM 82.4 °F 83.9 °F 64.4 °F 54% 29.91 in 10.0 mi West 10.4 mph - N/A   Clear
2:36 PM 82.4 °F 84.6 °F 66.2 °F 58% 29.90 in 10.0 mi WSW 8.1 mph - N/A   Clear
2:56 PM 82.4 °F 84.6 °F 66.2 °F 58% 29.90 in 10.0 mi West 9.2 mph - N/A   Scattered Clouds
3:17 PM 82.4 °F 84.6 °F 66.2 °F 58% 29.90 in 10.0 mi WSW 6.9 mph - N/A   Scattered Clouds
3:36 PM 80.6 °F 82.7 °F 66.2 °F 61% 29.90 in 10.0 mi West 4.6 mph - N/A   Mostly Cloudy
3:56 PM 80.6 °F 82.7 °F 66.2 °F 61% 29.90 in 10.0 mi SW 5.8 mph - N/A   Mostly Cloudy
4:17 PM 82.4 °F 84.6 °F 66.2 °F 58% 29.89 in 10.0 mi WSW 5.8 mph - N/A   Scattered Clouds
4:36 PM 82.4 °F 85.4 °F 68.0 °F 62% 29.89 in 10.0 mi West 5.8 mph - N/A   Scattered Clouds
4:56 PM 82.4 °F 85.4 °F 68.0 °F 62% 29.89 in 10.0 mi West 5.8 mph - N/A   Clear
5:17 PM 82.4 °F 84.6 °F 66.2 °F 58% 29.89 in 10.0 mi West 5.8 mph - N/A   Clear
5:36 PM 82.4 °F 85.4 °F 68.0 °F 62% 29.89 in 10.0 mi West 6.9 mph - N/A   Scattered Clouds
5:56 PM 80.6 °F 83.2 °F 68.0 °F 65% 29.89 in 10.0 mi Calm Calm - N/A   Scattered Clouds
6:17 PM 82.4 °F 85.4 °F 68.0 °F 62% 29.89 in 10.0 mi West 4.6 mph - N/A   Clear
6:36 PM 82.4 °F 85.4 °F 68.0 °F 62% 29.88 in 10.0 mi WSW 3.5 mph - N/A   Clear
6:56 PM 80.6 °F 83.2 °F 68.0 °F 65% 29.88 in 10.0 mi Calm Calm - N/A   Clear
7:17 PM 78.8 °F - 69.8 °F 74% 29.88 in 10.0 mi Calm Calm - N/A   Clear
7:36 PM 75.2 °F - 69.8 °F 83% 29.88 in 10.0 mi Calm Calm - N/A   Clear
7:57 PM 73.4 °F - 69.8 °F 88% 29.89 in 10.0 mi Calm Calm - N/A   Clear
8:17 PM 71.6 °F - 69.8 °F 94% 29.89 in 10.0 mi Calm Calm - N/A   Clear
8:36 PM 71.6 °F - 69.8 °F 94% 29.90 in 10.0 mi Calm Calm - N/A   Clear
8:57 PM 69.8 °F - 68.0 °F 94% 29.90 in 10.0 mi Calm Calm - N/A   Clear
9:16 PM 69.8 °F - 68.0 °F 94% 29.90 in 10.0 mi Calm Calm - N/A   Clear
9:37 PM 69.8 °F - 66.2 °F 88% 29.90 in 10.0 mi Calm Calm - N/A   Clear
9:56 PM 69.8 °F - 68.0 °F 94% 29.91 in 10.0 mi Calm Calm - N/A   Clear
10:16 PM 69.8 °F - 66.2 °F 88% 29.91 in 10.0 mi Calm Calm - N/A   Clear
10:37 PM 68.0 °F - 66.2 °F 94% 29.92 in 10.0 mi Calm Calm - N/A   Clear
10:56 PM 66.2 °F - 66.2 °F 100% 29.91 in 10.0 mi Calm Calm - N/A   Clear
11:16 PM 66.2 °F - 66.2 °F 100% 29.92 in 7.0 mi Calm Calm - N/A   Clear
11:37 PM 66.2 °F - 64.4 °F 94% 29.92 in 7.0 mi Calm Calm - N/A   Clear
11:56 PM 66.2 °F - 66.2 °F 100% 29.92 in 5.0 mi NNW 3.5 mph - N/A   Scattered Clouds